CW3071 Weather Reports


time (UTC)temp
F
wind
direction
speed
knots
gust
knots
rain 1hr
in
rain 24hr
in
rain mn
in
humidity
%
barometer
mb
20260904181602 85 182 7.8 16.5 0.00 0.00 0.00 22 1014.5
20260904180110 85 167 7.0 15.6 0.00 0.00 0.00 22 1014.6
20260904174622 84 226 6.1 14.8 0.00 0.00 0.00 22 1014.9
20260904173106 84 176 7.8 15.6 0.00 0.00 0.00 24 1014.9
20260904171604 83 156 7.8 18.2 0.00 0.00 0.00 24 1015.0
20260904170055 83 177 8.7 18.2 0.00 0.00 0.00 24 1014.9
20260904164558 83 157 6.1 18.2 0.00 0.00 0.00 24 1015.0
20260904163106 82 201 6.1 15.6 0.00 0.00 0.00 25 1014.9
20260904161607 81 152 7.0 17.4 0.00 0.00 0.00 26 1014.8
20260904160106 81 176 6.1 14.8 0.00 0.00 0.00 26 1014.8
20260904154559 80 190 7.0 11.3 0.00 0.00 0.00 26 1014.8
20260904153129 77 204 0.9 5.2 0.00 0.00 0.00 28 1014.7
20260904151606 75 134 0.0 5.2 0.00 0.00 0.00 28 1014.9
20260904150100 74 136 0.9 6.1 0.00 0.00 0.00 28 1014.9
20260904144558 72 161 0.0 3.5 0.00 0.00 0.00 30 1015.0
20260904143110 70 82 0.9 3.5 0.00 0.00 0.00 31 1015.0
20260904141558 66 41 0.0 2.6 0.00 0.00 0.00 36 1015.1
20260904140103 62 4 0.0 1.7 0.00 0.00 0.00 38 1015.0
20260904134609 60 4 1.7 3.5 0.00 0.00 0.00 37 1014.9
20260904133105 61 355 0.9 3.5 0.00 0.00 0.00 35 1014.7
20260904131605 61 80 0.0 0.9 0.00 0.00 0.00 36 1014.2
20260904130104 59 0 0.0 1.7 0.00 0.00 0.00 38 1014.1
20260904124600 58 350 0.9 3.5 0.00 0.00 0.00 38 1014.0
20260904123102 57 350 2.6 4.3 0.00 0.00 0.00 38 1014.0
20260904121601 57 350 0.9 2.6 0.00 0.00 0.00 38 1013.7
20260904120111 56 350 0.0 2.6 0.00 0.00 0.00 39 1013.5
20260904114600 56 0 0.0 0.0 0.00 0.00 0.00 39 1013.7
20260904113106 57 0 0.0 0.9 0.00 0.00 0.00 38 1013.8
20260904111603 58 0 0.9 3.5 0.00 0.00 0.00 36 1013.7
20260904110104 57 350 1.7 4.3 0.00 0.00 0.00 37 1013.8
20260904104559 58 350 0.9 3.5 0.00 0.00 0.00 36 1013.9
20260904103102 58 350 0.9 2.6 0.00 0.00 0.00 35 1013.9
20260904101602 58 350 0.0 1.7 0.00 0.00 0.00 35 1013.9
20260904100056 58 350 0.0 3.5 0.00 0.00 0.00 35 1014.0
20260904094610 58 350 1.7 4.3 0.00 0.00 0.00 34 1014.0
20260904093114 59 80 0.9 5.2 0.00 0.00 0.00 33 1013.9
20260904091600 59 350 2.6 4.3 0.00 0.00 0.00 32 1014.0
20260904084557 58 350 0.0 2.6 0.00 0.00 0.00 32 1014.0
20260904083106 59 0 0.0 2.6 0.00 0.00 0.00 32 1014.0
20260904081558 59 0 0.0 3.5 0.00 0.00 0.00 32 1014.1
20260904074605 59 0 0.0 3.5 0.00 0.00 0.00 31 1014.3
20260904073107 59 0 0.0 4.3 0.00 0.00 0.00 31 1014.3
20260904071601 59 350 0.9 3.5 0.00 0.00 0.00 31 1014.2
20260904070109 60 350 0.9 3.5 0.00 0.00 0.00 31 1014.3
20260904064604 60 104 0.0 1.7 0.00 0.00 0.00 31 1014.1
20260904063103 61 104 0.0 3.5 0.00 0.00 0.00 30 1014.2
20260904061605 61 103 0.9 3.5 0.00 0.00 0.00 30 1014.0
20260904060059 62 88 0.9 3.5 0.00 0.00 0.00 29 1013.9
20260904054602 62 103 0.9 1.7 0.00 0.00 0.00 30 1014.0
20260904053137 62 0 0.0 2.6 0.00 0.00 0.00 30 1014.0
20260904051605 63 0 0.9 2.6 0.00 0.00 0.00 28 1013.8
20260904050103 64 0 0.0 1.7 0.00 0.00 0.00 27 1013.7
20260904044602 65 0 0.0 1.7 0.00 0.00 0.00 27 1013.8
20260904043059 65 97 0.9 1.7 0.00 0.00 0.00 26 1013.9
20260904041604 66 0 0.0 2.6 0.00 0.00 0.00 26 1013.9
20260904040103 67 89 1.7 6.1 0.00 0.00 0.00 24 1013.9
20260904034604 68 74 2.6 5.2 0.00 0.00 0.00 23 1013.8
20260904033118 69 61 0.0 2.6 0.00 0.00 0.00 22 1013.8
20260904031559 70 302 0.0 3.5 0.00 0.00 0.00 22 1013.6
20260904030059 72 0 0.0 1.7 0.00 0.00 0.00 21 1013.5
20260904024600 73 0 0.9 3.5 0.00 0.00 0.00 20 1013.3
20260904023102 74 174 0.0 0.9 0.00 0.00 0.00 19 1013.3
20260904021601 76 0 0.0 2.6 0.00 0.00 0.00 18 1013.1
20260904020123 77 0 0.0 1.7 0.00 0.00 0.00 16 1012.9
20260904014649 79 182 1.7 7.0 0.00 0.00 0.00 15 1012.8
20260904013111 81 175 4.3 7.8 0.00 0.00 0.00 14 1012.7
20260904011606 82 172 5.2 11.3 0.00 0.00 0.00 14 1012.6
20260904010104 83 185 4.3 10.4 0.00 0.00 0.00 14 1012.7
20260904004603 84 186 3.5 9.6 0.00 0.00 0.00 13 1012.6
20260904003112 84 216 5.2 12.2 0.00 0.00 0.00 12 1012.6
20260904001556 85 143 2.6 10.4 0.00 0.00 0.00 12 1012.6
20260903234612 85 215 3.5 12.2 0.00 0.00 0.00 12 1012.7
20260903233059 85 188 7.0 15.6 0.00 0.00 0.00 12 1012.7
20260903231556 85 254 7.0 15.6 0.00 0.00 0.00 12 1012.6
20260903230108 85 188 7.0 15.6 0.00 0.00 0.00 13 1012.6
20260903224559 85 186 9.6 20.9 0.00 0.00 0.00 13 1012.7
20260903223058 85 227 6.1 18.2 0.00 0.00 0.00 13 1012.6
20260903221600 85 232 4.3 14.8 0.00 0.00 0.00 14 1012.7
20260903220107 85 197 6.1 15.6 0.00 0.00 0.00 13 1012.6
20260903214555 85 165 7.0 16.5 0.00 0.00 0.00 13 1012.6
20260903213058 85 174 6.1 18.2 0.00 0.00 0.00 13 1012.7
20260903211556 85 216 7.0 18.2 0.00 0.00 0.00 13 1012.8
20260903204608 84 162 5.2 17.4 0.00 0.00 0.00 14 1013.0
20260903203111 84 181 9.6 17.4 0.00 0.00 0.00 14 1013.1
20260903201559 83 219 5.2 16.5 0.00 0.00 0.00 15 1013.1
20260903200108 83 224 7.0 17.4 0.00 0.00 0.00 14 1013.2
20260903194607 83 251 6.1 13.0 0.00 0.00 0.00 15 1013.2
20260903193108 82 254 7.0 15.6 0.00 0.00 0.00 15 1013.3
20260903191605 82 222 8.7 16.5 0.00 0.00 0.00 15 1013.3
20260903190104 82 188 5.2 17.4 0.00 0.00 0.00 15 1013.4
20260903184600 82 214 5.2 20.0 0.00 0.00 0.00 16 1013.6
20260903183106 81 271 5.2 13.0 0.00 0.00 0.00 16 1013.7